DW6743 Weather Reports


Display with metric or nautical units.
time (UTC)temp
F
wind
direction
speed
MPH
gust
MPH
rain 1hr
in
rain 24hr
in
rain mn
in
humidity
%
barometer
mb
20260507014804 34 65 0.0 0.0 0.00 0.00 0.00 82 1013.8
20260507014605 34 0 0.0 3.0 0.00 0.00 0.00 81 1013.9
20260507014304 34 65 0.0 3.0 0.00 0.00 0.00 82 1013.8
20260507013804 34 65 1.0 3.0 0.00 0.00 0.00 82 1013.8
20260507013056 34 65 3.0 4.0 0.00 0.00 0.00 81 1013.8
20260507011804 34 65 3.0 3.0 0.00 0.00 0.00 81 1013.7
20260507011556 34 65 3.0 4.0 0.00 0.00 0.00 81 1013.7
20260507010804 35 65 2.0 3.0 0.00 0.00 0.00 81 1013.8
20260507010305 35 65 3.0 5.0 0.00 0.00 0.00 81 1013.7
20260507004804 36 65 2.0 3.0 0.00 0.00 0.00 81 1013.6
20260507004558 35 65 2.0 4.0 0.00 0.00 0.00 80 1013.5
20260507004304 35 65 2.0 3.0 0.00 0.00 0.00 81 1013.6
20260507003305 35 65 3.0 5.0 0.00 0.00 0.00 80 1013.5
20260507003055 35 65 3.0 5.0 0.00 0.00 0.00 79 1013.4
20260507001605 35 65 5.0 8.0 0.00 0.00 0.00 79 1013.4
20260507000306 36 66 6.0 8.0 0.00 0.00 0.00 78 1013.3
20260507000057 36 64 6.0 8.0 0.00 0.00 0.00 78 1013.3
20260506234600 36 56 5.0 8.0 0.00 0.00 0.00 77 1013.3
20260506234304 37 56 5.0 8.0 0.00 0.00 0.00 78 1013.3
20260506233304 37 54 5.0 6.0 0.00 0.00 0.00 77 1013.4
20260506233109 37 54 4.0 6.0 0.00 0.00 0.00 77 1013.4
20260506231804 37 50 5.0 6.0 0.00 0.00 0.00 77 1013.3
20260506231559 37 50 4.0 7.0 0.00 0.00 0.00 77 1013.3
20260506231304 37 55 5.0 6.0 0.00 0.00 0.00 77 1013.3
20260506230804 37 53 5.0 7.0 0.00 0.00 0.00 77 1013.2
20260506230304 37 57 5.0 8.0 0.00 0.00 0.00 76 1013.2
20260506230058 37 57 4.0 8.0 0.00 0.00 0.00 76 1013.0
20260506224804 38 50 5.0 6.0 0.00 0.00 0.00 76 1013.0
20260506224556 38 48 5.0 8.0 0.00 0.00 0.00 76 1013.1
20260506224304 38 46 6.0 8.0 0.00 0.00 0.00 77 1013.0
20260506223804 38 51 6.0 8.0 0.00 0.00 0.00 76 1013.0
20260506223102 38 40 4.0 9.0 0.00 0.00 0.00 75 1013.0
20260506221804 38 44 6.0 9.0 0.00 0.00 0.00 76 1012.9
20260506221559 38 44 6.0 9.0 0.00 0.00 0.00 75 1012.8
20260506221304 39 45 6.0 8.0 0.00 0.00 0.00 75 1012.8
20260506220827 39 44 5.0 7.0 0.00 0.00 0.00 75 1012.8
20260506220304 39 44 5.0 8.0 0.00 0.00 0.00 75 1012.7
20260506220059 38 44 4.0 8.0 0.00 0.00 0.00 74 1012.7
20260506214804 39 32 6.0 8.0 0.00 0.00 0.00 74 1012.4
20260506214557 39 29 6.0 8.0 0.00 0.00 0.00 74 1012.3
20260506214304 40 26 6.0 8.0 0.00 0.00 0.00 74 1012.4
20260506213804 40 27 6.0 6.0 0.00 0.00 0.00 74 1012.4
20260506213304 40 27 5.0 6.0 0.00 0.00 0.00 74 1012.3
20260506213113 40 27 3.0 5.0 0.00 0.00 0.00 73 1012.3
20260506211557 40 65 2.0 4.0 0.00 0.00 0.00 72 1012.2
20260506211304 41 65 2.0 3.0 0.00 0.00 0.00 72 1012.2
20260506210804 41 65 1.0 2.0 0.00 0.00 0.00 72 1012.3
20260506210058 41 65 2.0 5.0 0.00 0.00 0.00 71 1012.2
20260506204804 42 65 3.0 3.0 0.00 0.00 0.00 70 1012.1
20260506204559 42 65 3.0 4.0 0.00 0.00 0.00 70 1012.1
20260506204304 43 65 3.0 3.0 0.00 0.00 0.00 70 1012.2
20260506203804 43 65 3.0 3.0 0.00 0.00 0.00 70 1012.1
20260506203304 43 65 3.0 7.0 0.00 0.00 0.00 70 1012.1
20260506203057 43 65 3.0 7.0 0.00 0.00 0.00 69 1012.0
20260506201804 44 65 5.0 7.0 0.00 0.00 0.00 69 1012.0
20260506201557 44 65 5.0 8.0 0.00 0.00 0.00 68 1012.0
20260506201304 45 65 6.0 7.0 0.00 0.00 0.00 68 1012.0
20260506200804 45 65 7.0 8.0 0.00 0.00 0.00 67 1012.1
20260506200059 45 65 5.0 8.0 0.00 0.00 0.00 65 1012.0
20260506194634 47 60 4.0 10.0 0.00 0.00 0.00 63 1012.0
20260506194304 48 60 5.0 8.0 0.00 0.00 0.00 63 1011.9
20260506193804 48 53 6.0 10.0 0.00 0.00 0.00 62 1012.0
20260506193304 48 55 6.0 10.0 0.00 0.00 0.00 62 1011.9
20260506193106 48 53 6.0 10.0 0.00 0.00 0.00 61 1012.0
20260506191557 49 63 5.0 11.0 0.00 0.00 0.00 60 1011.8
20260506191305 49 66 5.0 10.0 0.00 0.00 0.00 60 1011.8
20260506190804 49 58 9.0 12.0 0.00 0.00 0.00 60 1011.8
20260506184804 50 52 8.0 12.0 0.00 0.00 0.00 61 1011.5
20260506184557 50 49 9.0 15.0 0.00 0.00 0.00 60 1011.4
20260506184304 50 53 11.0 15.0 0.00 0.00 0.00 60 1011.5
20260506183305 51 51 13.0 18.0 0.00 0.00 0.00 60 1011.3
20260506183057 50 48 11.0 18.0 0.00 0.00 0.00 60 1011.3
20260506181804 51 43 11.0 16.0 0.00 0.00 0.00 59 1011.4
20260506181559 51 39 11.0 19.0 0.00 0.00 0.00 58 1011.2
20260506181304 51 42 14.0 18.0 0.00 0.00 0.00 59 1011.4
20260506180305 52 54 14.0 20.0 0.00 0.00 0.00 59 1011.3
20260506180107 51 54 13.0 17.0 0.00 0.00 0.00 59 1011.2
20260506174804 52 55 14.0 18.0 0.00 0.00 0.00 59 1011.3
20260506174601 52 66 14.0 18.0 0.00 0.00 0.00 58 1011.2
20260506174304 52 49 14.0 17.0 0.00 0.00 0.00 59 1011.3
20260506173804 52 54 14.0 18.0 0.00 0.00 0.00 58 1011.2
20260506173059 52 40 10.0 18.0 0.00 0.00 0.00 56 1011.2
20260506171804 53 39 8.0 15.0 0.00 0.00 0.00 51 1011.2
20260506171604 53 29 8.0 18.0 0.00 0.00 0.00 50 1011.2
20260506171304 53 38 9.0 16.0 0.00 0.00 0.00 50 1011.2
20260506170804 53 56 13.0 18.0 0.00 0.00 0.00 50 1011.3
20260506170304 53 36 9.0 17.0 0.00 0.00 0.00 49 1011.2
20260506170111 53 45 11.0 17.0 0.00 0.00 0.00 48 1011.1
20260506164804 54 47 12.0 16.0 0.00 0.00 0.00 50 1011.2
20260506164607 53 33 12.0 18.0 0.00 0.00 0.00 50 1011.1
20260506164304 54 50 10.0 15.0 0.00 0.00 0.00 51 1011.2
20260506163804 54 43 12.0 18.0 0.00 0.00 0.00 52 1011.2
20260506163119 53 48 9.0 18.0 0.00 0.00 0.00 50 1011.2
20260506161804 54 41 12.0 17.0 0.00 0.00 0.00 50 1011.1
20260506161614 53 47 10.0 16.0 0.00 0.00 0.00 49 1011.1
20260506161304 54 52 11.0 15.0 0.00 0.00 0.00 49 1011.1
20260506160804 54 36 12.0 16.0 0.00 0.00 0.00 48 1011.1
20260506160304 54 43 12.0 16.0 0.00 0.00 0.00 47 1011.1
20260506160059 54 32 9.0 16.0 0.00 0.00 0.00 46 1011.1
20260506154804 54 50 9.0 17.0 0.00 0.00 0.00 45 1011.1
20260506154624 54 40 9.0 16.0 0.00 0.00 0.00 44 1011.1
20260506153804 55 42 10.0 16.0 0.00 0.00 0.00 44 1011.1
20260506153117 54 21 10.0 16.0 0.00 0.00 0.00 42 1011.0
20260506151804 54 47 13.0 16.0 0.00 0.00 0.00 42 1011.1
20260506151600 53 53 12.0 15.0 0.00 0.00 0.00 41 1011.1
20260506151304 54 28 10.0 15.0 0.00 0.00 0.00 41 1011.2
20260506144804 54 28 12.0 16.0 0.00 0.00 0.00 35 1011.2
20260506144558 54 24 10.0 16.0 0.00 0.00 0.00 35 1011.1
20260506144304 54 35 13.0 16.0 0.00 0.00 0.00 37 1011.2
20260506143804 54 18 12.0 16.0 0.00 0.00 0.00 36 1011.2
20260506143304 53 19 12.0 17.0 0.00 0.00 0.00 34 1011.3
20260506143107 53 30 11.0 17.0 0.00 0.00 0.00 33 1011.3
20260506141804 54 28 12.0 16.0 0.00 0.00 0.00 38 1011.3
20260506141559 53 25 12.0 17.0 0.00 0.00 0.00 38 1011.3
20260506141304 54 25 11.0 16.0 0.00 0.00 0.00 38 1011.3
20260506140804 54 28 13.0 16.0 0.00 0.00 0.00 40 1011.4
20260506140304 54 28 13.0 17.0 0.00 0.00 0.00 41 1011.4
20260506140059 53 25 12.0 17.0 0.00 0.00 0.00 40 1011.4
20260506134804 54 26 10.0 17.0 0.00 0.00 0.00 40 1011.4
20260506134557 54 52 10.0 16.0 0.00 0.00 0.00 41 1011.4
20260506134304 54 20 10.0 15.0 0.00 0.00 0.00 41 1011.4
20260506133304 54 30 12.0 16.0 0.00 0.00 0.00 41 1011.4
20260506133059 53 9 12.0 16.0 0.00 0.00 0.00 41 1011.3
20260506131806 54 20 13.0 16.0 0.00 0.00 0.00 38 1011.4
20260506131601 54 24 11.0 16.0 0.00 0.00 0.00 39 1011.3
20260506131304 54 15 12.0 16.0 0.00 0.00 0.00 40 1011.4
20260506130804 54 22 13.0 15.0 0.00 0.00 0.00 39 1011.4
20260506130304 53 14 10.0 16.0 0.00 0.00 0.00 40 1011.3
20260506124559 53 11 11.0 17.0 0.00 0.00 0.00 43 1011.4
20260506124318 53 13 11.0 15.0 0.00 0.00 0.00 44 1011.4
20260506123304 54 24 12.0 16.0 0.00 0.00 0.00 44 1011.3
20260506123100 54 15 13.0 16.0 0.00 0.00 0.00 45 1011.3
20260506121804 54 347 12.0 15.0 0.00 0.00 0.00 47 1011.4
20260506121600 53 345 8.0 16.0 0.00 0.00 0.00 48 1011.3
20260506121304 53 354 12.0 15.0 0.00 0.00 0.00 48 1011.4
20260506120804 54 356 14.0 16.0 0.00 0.00 0.00 47 1011.4
20260506120304 54 355 9.0 15.0 0.00 0.00 0.00 47 1011.5
20260506120101 54 2 11.0 15.0 0.00 0.00 0.00 47 1011.4
20260506114804 54 354 11.0 15.0 0.00 0.00 0.00 48 1011.4
20260506114606 53 350 10.0 15.0 0.00 0.00 0.00 48 1011.5
20260506114304 54 1 13.0 15.0 0.00 0.00 0.00 47 1011.4
20260506113804 54 4 12.0 14.0 0.00 0.00 0.00 50 1011.5
20260506113304 53 358 8.0 14.0 0.00 0.00 0.00 52 1011.5
20260506113057 53 356 11.0 14.0 0.00 0.00 0.00 49 1011.5
20260506111804 53 4 10.0 13.0 0.00 0.00 0.00 47 1011.5
20260506111557 53 358 8.0 12.0 0.00 0.00 0.00 50 1011.5
20260506111304 53 8 8.0 12.0 0.00 0.00 0.00 44 1011.5
20260506110804 53 348 7.0 15.0 0.00 0.00 0.00 49 1011.6
20260506110305 53 3 7.0 15.0 0.00 0.00 0.00 48 1011.7
20260506110103 53 356 7.0 14.0 0.00 0.00 0.00 48 1011.7
20260506104804 53 15 7.0 12.0 0.00 0.00 0.00 46 1011.8
20260506104600 53 313 8.0 13.0 0.00 0.00 0.00 48 1011.7
20260506104304 53 322 6.0 12.0 0.00 0.00 0.00 47 1011.9
20260506103804 53 0 10.0 13.0 0.00 0.00 0.00 48 1011.9
20260506103057 52 13 5.0 13.0 0.00 0.00 0.00 45 1011.8
20260506101804 52 4 9.0 13.0 0.00 0.00 0.00 51 1012.0
20260506101604 52 7 9.0 12.0 0.00 0.00 0.00 51 1011.9
20260506100804 52 332 9.0 12.0 0.00 0.00 0.00 48 1012.0
20260506100304 52 317 8.0 13.0 0.00 0.00 0.00 52 1012.0
20260506100100 52 329 8.0 13.0 0.00 0.00 0.00 53 1011.8
20260506094804 53 344 7.0 12.0 0.00 0.00 0.00 52 1012.0
20260506094622 52 336 7.0 12.0 0.00 0.00 0.00 50 1012.0
20260506094304 53 327 8.0 12.0 0.00 0.00 0.00 50 1012.0
20260506093805 53 326 9.0 12.0 0.00 0.00 0.00 50 1011.9
20260506093304 53 338 9.0 14.0 0.00 0.00 0.00 49 1011.9
20260506093057 52 319 8.0 14.0 0.00 0.00 0.00 49 1011.8
20260506091804 54 332 8.0 14.0 0.00 0.00 0.00 46 1011.9
20260506091557 54 325 6.0 11.0 0.00 0.00 0.00 44 1011.9
20260506091304 55 335 7.0 12.0 0.00 0.00 0.00 45 1012.0
20260506090804 55 319 5.0 10.0 0.00 0.00 0.00 31 1011.9
20260506090304 55 275 2.0 8.0 0.00 0.00 0.00 31 1012.0
20260506090059 54 0 1.0 8.0 0.00 0.00 0.00 30 1011.8
20260506084804 54 193 6.0 9.0 0.00 0.00 0.00 31 1012.0
20260506084602 54 174 4.0 12.0 0.00 0.00 0.00 31 1012.0
20260506083804 55 219 7.0 12.0 0.00 0.00 0.00 32 1012.0
20260506083305 54 203 2.0 13.0 0.00 0.00 0.00 31 1012.0
20260506083103 54 257 3.0 13.0 0.00 0.00 0.00 31 1011.9
20260506081804 54 212 5.0 10.0 0.00 0.00 0.00 34 1012.1
20260506081559 53 254 6.0 13.0 0.00 0.00 0.00 35 1012.0
20260506081304 53 219 6.0 10.0 0.00 0.00 0.00 38 1012.0
20260506080804 53 193 10.0 13.0 0.00 0.00 0.00 36 1012.1
20260506080304 53 198 10.0 14.0 0.00 0.00 0.00 37 1012.0
20260506073304 52 210 8.0 15.0 0.00 0.00 0.00 40 1012.1
20260506073105 51 169 6.0 14.0 0.00 0.00 0.00 41 1012.0
20260506071804 51 175 9.0 13.0 0.00 0.00 0.00 44 1012.0
20260506071559 50 184 8.0 15.0 0.00 0.00 0.00 44 1012.0
20260506071304 51 193 9.0 14.0 0.00 0.00 0.00 46 1012.1
20260506070804 50 169 6.0 12.0 0.00 0.00 0.00 45 1012.1
20260506070304 50 194 9.0 13.0 0.00 0.00 0.00 45 1012.0
20260506070109 49 183 8.0 12.0 0.00 0.00 0.00 45 1012.0
20260506061806 48 178 9.0 12.0 0.00 0.00 0.00 49 1012.1
20260506061600 47 181 5.0 12.0 0.00 0.00 0.00 49 1012.2
20260506061304 48 159 7.0 12.0 0.00 0.00 0.00 51 1012.1
20260506060804 47 167 6.0 10.0 0.00 0.00 0.00 52 1012.1
20260506060304 47 179 8.0 12.0 0.00 0.00 0.00 53 1012.0
20260506060105 46 126 8.0 12.0 0.00 0.00 0.00 54 1011.9
20260506050804 39 167 6.0 12.0 0.00 0.00 0.00 79 1012.2
20260506050305 38 173 7.0 10.0 0.00 0.00 0.00 80 1012.3
20260506044804 36 166 5.0 7.0 0.00 0.00 0.00 80 1012.2
20260506044600 36 171 4.0 8.0 0.00 0.00 0.00 79 1012.2
20260506044304 36 168 5.0 8.0 0.00 0.00 0.00 80 1012.3
20260506043804 35 167 5.0 8.0 0.00 0.00 0.00 80 1012.3
20260506043304 35 162 5.0 9.0 0.00 0.00 0.00 80 1012.3
20260506043059 35 164 5.0 9.0 0.00 0.00 0.00 80 1012.2
20260506041804 34 167 6.0 9.0 0.00 0.00 0.00 80 1012.4
20260506041558 33 170 6.0 11.0 0.00 0.00 0.00 80 1012.2
20260506041304 34 170 7.0 9.0 0.00 0.00 0.00 80 1012.2
20260506040805 33 165 7.0 9.0 0.00 0.00 0.00 80 1012.3
20260506040304 33 162 7.0 12.0 0.00 0.00 0.00 80 1012.2
20260506040105 33 165 7.0 10.0 0.00 0.00 0.00 79 1012.2
20260506034804 33 169 8.0 12.0 0.00 0.00 0.00 79 1012.2
20260506034615 33 169 6.0 12.0 0.00 0.00 0.00 78 1012.2
20260506034304 34 161 5.0 8.0 0.00 0.00 0.00 79 1012.3
20260506033804 34 156 6.0 8.0 0.00 0.00 0.00 79 1012.2
20260506033305 34 159 6.0 10.0 0.00 0.00 0.00 79 1012.2
20260506033056 34 163 7.0 10.0 0.00 0.00 0.00 78 1012.1
20260506031605 34 171 8.0 11.0 0.00 0.00 0.00 79 1012.1
20260506031304 35 177 9.0 10.0 0.00 0.00 0.00 80 1012.2
20260506030804 35 168 8.0 10.0 0.00 0.00 0.00 80 1012.1
20260506030304 35 167 10.0 12.0 0.00 0.00 0.00 80 1012.1
20260506024557 34 167 7.0 10.0 0.00 0.00 0.00 80 1012.1
20260506024305 34 164 7.0 10.0 0.00 0.00 0.00 81 1012.0
20260506023804 34 161 7.0 10.0 0.00 0.00 0.00 81 1012.2
20260506023304 34 165 9.0 12.0 0.00 0.00 0.00 81 1012.1
20260506023059 33 168 9.0 12.0 0.00 0.00 0.00 81 1012.1
20260506021804 33 171 10.0 12.0 0.00 0.00 0.00 82 1012.2
20260506021600 33 169 8.0 11.0 0.00 0.00 0.00 81 1012.2
20260506021304 33 164 7.0 9.0 0.00 0.00 0.00 81 1012.2
20260506020804 33 165 7.0 9.0 0.00 0.00 0.00 81 1012.2